Observer details:
474 Mount John Observatory, Lake Tekapo.  Observers A. C. Gilmore, P. M.
    Kilmartin.  Measurer P. M. Kilmartin.  0.6-m f/6.3 Reflector + CCD.
E23 Arcadia.  Observer A. Hidas.  0.35-m f/1.9 reflector + CCD.
F51 Pan-STARRS 1, Haleakala.  Observers J. Herman, T. Lowe, P. Minguez, A.
    Schultz, I. Smith.  Measurers K. Chambers, T. de Boer, J. Fairlamb, H.
    Gao, M. Huber, C.-C. Lin, E. Magnier, Y. Ramanjooloo, R. Wainscoat, R.
    Weryk.  1.8-m Ritchey-Chretien + CCD.
F52 Pan-STARRS 2, Haleakala.  Observers J. Herman, T. Lowe, P. Minguez, A.
    Schultz, I. Smith.  Measurers K. Chambers, T. de Boer, J. Fairlamb, H.
    Gao, M. Huber, C.-C. Lin, E. Magnier, Y. Ramanjooloo, R. Wainscoat, R.
    Weryk.  1.8-m Ritchey-Chretien + CCD.
I47 Pierre Auger Observatory, Malargue.  Observer M. Masek.  0.3-m f/6.8
    reflector + CCD.
M21 Schiaparelli Southern Observatory, Hakos.  Observers A. Aletti, F.
    Bellini, L. Buzzi, G. Galli.  Measurer L. Buzzi.  0.36-m f/8.4 reflector +
    CCD.
M22 ATLAS South Africa, Sutherland.  Observers L. Denneau, R. Siverd, J.
    Tonry, H. Weiland.  Measurers L. Denneau, N. Erasmus, A. Fitzsimmons, J.
    Robinson, R. Siverd, J. Tonry, H. Weiland.  0.5-m Reflector + CCD.
M49 IAS Remote Observatory, Hakos.  Observers D. Husar, M. Junius.  Measurer
    D. Husar.  0.25-m f/4.5 reflector + CMO.
Q06 Tarui Observatory, Tarui.  Observer H. Watanabe.  0.35-m f/1.9 Schmidt-
    Cassegrain + CMO.
Q62 iTelescope Observatory, Siding Spring.  Observers H. Sato, F. D. Romanov.
    0.51-m f/6.8 astrograph + CCD, 0.43-m f/6.8 reflector + CCD.
T11 United Kingdom Infrared Telescope, Maunakea.  Observer .  Measurer S.
    Deen.  3.8-m Cassegrain reflector.
W84 Cerro Tololo-DECam.  Observer A. Zenteno.  Measurer S. Deen.  4.0-m
    reflector + CCD.
Y05 SONEAR Wykrota-CEAMIG, Serra da Piedade.  Observers C. Jacques, A.
    Caetano, E. Pimentel.  Measurer C. Jacques.  0.45-m f/2.9 reflector + CMO.

Orbital elements:
2024 GT4                                                                        
Epoch 2024 Mar. 31.0 TT = JDT 2460400.5                 Bell                    
M 350.25227              (2000.0)            P               Q                  
n   0.00515226     Peri.  320.70891     -0.78675375     +0.33201736             
a  33.1999751      Node   246.50646     -0.31756507     -0.94061050             
e   0.5353383      Incl.   34.56933     -0.52931178     +0.07082618             
P 191              H    7.87          G   0.15           U   3                  
Residuals in seconds of arc
100106 T11  0.1+  0.1+    210116 F51  0.0   0.0     240404 M22  0.4+  0.3-
100106 T11  0.0   0.0     210116 F51  0.0   0.0     240406 474  0.0   0.0
100106 T11  0.4-  0.2+    210116 F51  0.0   0.0     240406 474  0.1+  0.1-
100210 T11  0.4+  0.3-    210116 F51  0.0   0.0     240406 474  0.0   0.1+
100210 T11  0.2+  0.0     210210 F51  0.1+  0.0     240406 474  0.0   0.0
100210 T11  0.1-  0.0     210210 F51  0.0   0.0     240407 Y05  0.2+  0.1+
111223 F51  0.0   0.2+    210210 F51  0.0   0.0     240407 Y05  0.3-  0.0
111223 F51  0.3+  0.2-    210210 F51  0.0   0.0     240407 I47  0.0   0.8-
121128 F51  0.1-  0.0     210213 F51  0.0   0.0     240407 I47  0.6+  0.4+
121128 F51  0.1+  0.1+    210213 F51  0.1-  0.0     240407 E23  0.6+  0.0
121223 F51  0.1-  0.0     210301 W84  0.2+  0.0     240407 Q06  1.6-  1.0-
121223 F51  0.1+  0.0     210324 F52  0.1-  0.1-    240407 E23  0.3+  0.1-
121223 F51  0.2-  0.2+    210324 F52  0.2-  0.3-    240407 Q06  0.0   0.0
130123 F51  0.1-  0.4-    210417 F52  0.1-  0.1-    240407 Q06  1.3-  0.3-
130123 F51  0.1+  0.0     210417 F52  0.0   0.1-    240407 M21  0.2-  0.1-
131203 F51  0.1-  0.1+    210417 F52  0.1+  0.0     240407 M21  0.1+  0.1+
131203 F51  0.1-  0.1+    210417 F52  0.0   0.0     240409 Q62  0.0   0.0
140120 F51  0.0   0.1-    231207 F51  0.0   0.0     240409 Q62  0.1+  0.0
140120 F51  0.1+  0.0     231207 F51  0.0   0.0     240410 M49  0.1+  0.0
191115 F52  0.0   0.0     231207 F51  0.0   0.0     240410 M49  0.2+  0.2+
191115 F52  0.2+  0.2+    231207 F51  0.0   0.1-    240410 M49  0.1+  0.1-
191115 F52  0.1+  0.0     231217 F51  0.1+  0.0     240410 M49  0.1+  0.1-
191115 F52  0.0   0.0     231217 F51  0.0   0.0     240410 M49  0.1-  0.0
191115 F52  0.1-  0.1+    231217 F51  0.0   0.0     240410 M49  0.0   0.1+
191115 F52  0.0   0.2+    231217 F51  0.0   0.1-    240411 Q62  0.1-  0.0
191115 F52  0.0   0.0     240222 F52  0.0   0.0     240411 Q62  0.4-  0.2+
191115 F52  0.0   0.0     240222 F52  0.0   0.0     240411 Q62  0.4-  0.5+
200125 F51  0.1+  0.0     240222 F52  0.0   0.0     240411 M49  0.2+  0.4-
200125 F51  0.0   0.0     240222 F52  0.1+  0.0     240411 M49  0.2+  0.1+
200125 F51  0.0   0.0     240404 M22  0.2-  0.2+    240411 M49  0.0   0.0
200125 F51  0.0   0.1-    240404 M22  0.7+  0.1+

Ephemeris:
2024 GT4                 a,e,i = 33.20, 0.54, 35                 q = 15.4268
Date    TT    R. A. (2000) Decl.     Delta      r    Elong.  Phase     V
2024 03 14    10 34 40.4 -29 36 29  15.7487 16.5693   144.6     2.0    20.2
...
2024 03 29    10 32 11.9 -29 12 40  15.7568 16.5524   141.7     2.1    20.2
...
2024 04 06    10 31 05.8 -28 57 36  15.7835 16.5434   138.2     2.3    20.2
...
2024 04 12    10 30 24.0 -28 45 31  15.8132 16.5367   135.0     2.5    20.2
2024 04 13    10 30 17.7 -28 43 28  15.8189 16.5356   134.4     2.5    20.2
2024 04 14    10 30 11.7 -28 41 23  15.8248 16.5345   133.8     2.5    20.2
...
2024 04 20    10 29 39.9 -28 28 45  15.8647 16.5278   130.0     2.7    20.2
...
2024 04 28    10 29 10.2 -28 11 36  15.9286 16.5189   124.4     2.9    20.3
...
2024 05 13    10 28 56.2 -27 39 51  16.0766 16.5023   113.3     3.2    20.3

M. P. C. Staff               (C) Copyright 2024 MPC           M.P.E.C. 2024-G179





More information about the Iaude mailing list